Hourly Data Report for September 27, 2020

SHEARWATER RCS
NOVA SCOTIA
Current Station Operator: ECCC - MSC

44°37'47.000" N
63°30'48.000" W
24.00 m
8205092
71264
AAW

Download Data

Hourly Data (September 2020)
Hourly Data Report for September 27, 2020
TIME Temp Definition
°C
Dew Point Definition
°C
Rel Hum Definition
%
Wind Dir Definition
10's deg

Wind Spd Definition
km/h
Visibility Definition
km
Stn Press Definition
kPa
Hmdx Definition


Wind Chill Definition


Weather Definition


00:00 15.1 14.7 98 17 2   101.79     LegendNANA
01:00 15.2 14.9 98 16 6   101.76     LegendNANA
02:00 15.0 14.8 99 18 9   101.74     LegendNANA
03:00 15.0 14.8 99 18 8   101.69     LegendNANA
04:00 15.0 14.8 99 19 8   101.67     LegendNANA
05:00 15.0 14.8 99 17 5   101.72     LegendNANA
06:00 15.0 14.9 99 17 7   101.67     LegendNANA
07:00 15.2 15.1 99 20 4   101.72     LegendNANA
08:00 15.7 15.6 99 18 6   101.73     LegendNANA
09:00 16.5 16.3 99 21 8   101.71     LegendNANA
10:00 17.4 16.9 97 21 10   101.75     LegendNANA
11:00 17.8 16.9 95 20 9   101.70     LegendNANA
12:00 19.1 16.5 85 18 13   101.68     LegendNANA
13:00 18.8 16.3 85 17 11   101.66     LegendNANA
14:00 20.2 15.9 76 15 13   101.60 25   LegendNANA
15:00 20.9 17.1 79 20 19   101.60 26   LegendNANA
16:00 18.5 16.8 90 16 11   101.61     LegendNANA
17:00 18.1 16.9 93 19 12   101.61     LegendNANA
18:00 17.3 16.8 97 21 16   101.60     LegendNANA
19:00 17.3 16.9 97 20 13   101.63     LegendNANA
20:00 17.8 17.2 96 19 12   101.67     LegendNANA
21:00 17.5 17.1 98 18 10   101.66     LegendNANA
22:00 17.6 17.2 98 17 9   101.66     LegendNANA
23:00 17.6 17.2 98 20 10   101.69     LegendNANA

Notes on Data Quality.

Legend

  • E = Estimated
  • M = Missing
  • NA = Not Available*
  • [empty] = Indicates an unobserved value
Date modified: